Tracking 35275 objects as of 8-Sep-2026
HD Live streaming from Space Station
objects crossing your sky now

STARLINK-34227

Track STARLINK-34227 now!
10-day predictions
STARLINK-34227 is classified as:


NORAD ID: 64178
Int'l Code: 2025-113J
Launch date: May 28, 2025
Source: United States (US)
Launch site: AIR FORCE EASTERN TEST RANGE (AFETR)
Your satellite tracking list
Your tracking list is empty




NASA's NSSDC Master Catalog

Two Line Element Set (TLE):
1 64178U 25113J   26251.45734759  .00020941  00000-0  62884-3 0  9995
2 64178  53.1606 321.7715 0001936  84.0575 276.0648 15.34416749 73055
Source of the keplerian elements: AFSPC